Terminal Aerodrome Forecast
Issued by NWS Caribou, ME

Home | Current Version | Previous Version | Text Only | Print | Product List | Glossary On
Versions: 1 2 3 4 5 6 7 8 9 10 11 12 13 14 15 16
000
FTUS41 KCAR 232326 AAB
TAFBGR
TAF AMD
KBGR 232326Z 2323/2424 21006KT 2SM BR OVC003 WS020/23040KT
     FM240400 23006KT 1/2SM FG OVC003
     FM241500 VRB03KT 4SM BR SCT003
     FM241900 19003KT 3SM -RA OVC015=

USA.gov is the U.S. government's official web portal to all federal, state and local government web resources and services.